Theta_e
312 313 315 317 319 320 321 322 323 324 323 323 323 323 323 321 321 321 319 318 318 317 318 318 317 317 317 316 318 317 317 317 317 317 317 318 318 318 318 318 318 318 318 318 318 318 317 318 318 318 319 318 318 318 318 318 319 319 319 319 318 319 318 316 313 313 315 318 319 319 320 319 317 316 316 315 312 310 307 308 309 309 311 312 311
308 311 312 313 314 317 319 320 321 322 321 322 320 322 321 321 320 318 317 319 317 318 318 317 316 316 316 316 317 317 317 317 317 317 318 318 318 319 318 318 318 318 318 318 318 318 318 317 317 318 319 318 318 317 318 318 317 317 317 318 318 318 319 316 315 313 312 312 315 316 316 316 317 316 316 315 315 314 312 310 308 307 310 310 310
308 309 310 310 311 313 315 317 317 317 318 319 318 319 319 319 317 317 317 317 316 317 317 316 315 315 315 315 316 316 316 316 316 316 318 319 318 318 318 318 318 317 317 318 318 318 317 316 317 318 318 317 317 317 318 317 317 317 317 317 317 318 318 319 316 313 312 310 314 312 312 313 315 315 315 316 315 315 313 312 309 307 309 310 310
307 307 308 309 310 311 311 313 313 314 315 316 316 317 318 318 315 316 317 316 315 313 314 314 313 313 313 313 314 314 314 314 313 314 317 318 318 318 318 318 318 318 318 318 318 317 317 316 317 317 317 316 316 316 317 317 316 316 315 316 316 316 317 317 317 316 313 312 306 310 309 310 310 313 314 314 313 312 310 311 309 311 313 312 309
304 305 305 306 306 306 308 309 309 310 312 314 314 315 315 316 314 314 314 313 314 311 309 310 311 311 312 312 312 312 312 312 312 312 314 315 317 317 317 317 317 318 318 318 311 317 316 316 317 316 316 315 315 315 315 314 315 314 314 315 315 315 315 315 314 314 313 311 309 308 307 307 308 306 308 306 304 302 300 302 306 309 310 309 307
302 303 303 303 304 303 304 304 306 308 309 310 311 313 313 311 311 309 310 312 309 308 309 306 308 309 309 310 310 309 308 308 310 310 310 310 311 313 312 312 313 314 314 314 315 314 315 315 315 315 315 314 314 314 314 313 313 313 312 313 313 312 311 310 309 309 310 310 309 308 304 309 304 303 301 301 300 301 299 298 297 300 301 303 304
300 300 301 299 302 302 302 302 305 305 306 308 308 307 307 305 305 308 305 308 306 305 303 305 304 307 307 307 307 307 306 305 306 306 307 307 308 308 307 308 308 308 308 308 309 310 312 313 313 314 314 314 314 314 313 312 313 312 311 312 310 307 307 308 308 308 308 308 307 307 306 303 303 306 301 298 299 300 302 302 302 296 294 295 299
296 296 296 297 299 302 302 301 302 303 304 303 304 302 303 301 304 304 300 304 304 304 304 305 302 301 304 303 304 302 302 302 303 302 304 305 305 305 305 305 305 305 305 305 306 307 309 310 311 312 313 314 314 314 314 313 312 312 311 309 308 307 307 307 307 307 307 307 307 307 305 303 300 299 297 300 302 300 298 301 302 298 298 294 293
294 294 294 296 299 300 298 295 297 297 296 299 300 302 303 302 299 298 299 301 303 303 303 302 297 296 293 296 296 297 300 301 301 301 302 303 303 303 304 304 303 303 303 301 301 304 306 308 309 310 309 303 301 303 305 306 313 311 308 307 307 307 307 307 307 307 306 306 305 304 302 300 300 300 299 298 299 300 294 295 297 296 296 297 299
293 294 294 296 297 294 293 292 294 294 296 298 299 298 297 296 295 295 296 297 297 294 296 296 297 297 294 292 292 295 298 300 296 296 298 302 302 303 303 302 301 301 300 300 299 299 303 304 306 297 294 292 293 293 295 296 299 307 311 308 307 307 305 306 305 305 305 305 305 304 302 302 300 298 296 293 293 295 295 294 296 294 294 296 295
294 293 295 296 294 292 292 294 293 294 296 295 293 293 295 292 292 293 293 292 293 292 294 295 295 295 296 294 293 296 297 297 293 296 297 298 300 301 301 302 302 300 299 299 300 299 298 298 301 294 292 291 293 291 293 293 293 294 295 298 301 307 307 306 305 303 303 303 302 300 301 300 297 294 294 295 293 294 295 293 295 294 295 294 293
294 294 295 295 293 294 293 292 291 293 292 293 293 292 290 290 291 292 291 290 290 291 293 296 295 294 294 294 295 295 295 293 294 296 296 297 296 298 299 300 301 300 298 298 298 297 297 296 295 300 296 295 296 295 294 293 293 293 293 294 294 295 297 303 305 304 300 304 302 302 299 300 296 294 293 292 293 292 292 291 291 292 292 291 291
294 294 295 294 294 292 291 291 292 291 291 291 289 289 289 290 290 291 291 290 290 292 293 293 292 292 293 294 293 292 292 292 295 295 295 295 295 295 297 298 298 298 297 296 296 296 296 296 296 296 297 288 291 293 293 293 292 292 293 292 291 292 294 294 293 299 302 300 303 298 297 295 294 294 292 293 292 292 291 291 289 289 290 289 289
293 294 294 294 293 291 291 291 291 290 289 288 287 287 289 292 290 289 289 289 291 291 290 291 291 292 292 292 291 290 291 291 294 294 294 294 294 295 296 296 296 294 293 294 294 294 295 296 296 295 291 289 290 291 293 291 292 293 292 292 291 290 289 290 290 290 294 299 297 299 293 292 296 293 291 292 293 291 290 290 289 289 289 289 289
293 293 294 295 293 290 290 290 290 289 287 287 287 288 290 289 289 289 290 291 292 292 291 291 291 291 291 291 291 290 291 291 294 294 294 294 294 294 296 296 293 291 292 292 293 293 293 295 293 293 291 290 290 290 291 292 291 292 291 290 288 288 288 288 289 288 289 293 293 291 291 289 290 291 292 294 294 293 293 290 290 289 289 288 286
293 293 293 294 294 294 291 290 289 288 287 286 287 289 289 290 291 288 288 287 286 288 288 289 290 290 290 290 290 289 289 291 292 293 293 294 294 294 294 294 292 291 290 290 290 291 292 293 292 291 290 289 289 289 289 289 292 291 290 288 287 287 287 287 289 291 290 289 289 289 289 291 292 292 293 292 292 289 285 286 286 285 284 282 283
292 293 293 294 294 294 293 292 290 289 287 288 288 289 289 289 289 287 288 288 289 289 290 289 290 290 290 290 290 289 289 290 291 292 293 294 293 291 291 292 292 291 290 289 289 289 289 290 290 290 289 289 289 291 291 289 290 290 289 288 287 287 286 286 289 291 291 291 292 293 293 293 293 292 292 292 288 285 283 284 281 281 282 282 282
292 292 293 294 294 294 294 292 292 290 288 289 290 290 289 287 288 287 290 289 289 290 290 289 289 290 290 289 290 289 289 288 290 291 292 293 291 291 291 291 290 289 288 287 287 287 287 286 287 289 289 288 290 291 291 289 289 289 288 286 286 286 286 286 287 287 287 287 288 288 289 290 290 290 290 289 288 285 283 284 285 285 283 282 281
291 292 293 293 293 293 293 292 292 291 291 291 291 290 290 290 289 287 288 289 288 289 289 289 288 289 289 290 288 289 289 288 289 291 291 292 290 290 291 291 290 288 287 286 287 287 287 286 286 287 288 288 291 292 291 288 288 288 288 288 287 287 286 285 286 286 285 284 282 282 282 283 282 282 283 287 286 285 285 285 286 285 283 283 284
291 292 292 292 292 292 292 292 292 292 292 292 290 290 288 287 288 287 287 287 287 287 288 289 288 288 289 289 289 289 288 287 288 290 290 291 291 289 290 291 290 288 287 287 285 286 286 286 287 289 290 291 291 291 290 290 287 287 287 288 288 287 286 284 283 283 282 281 280 280 280 280 281 281 281 281 281 281 283 284 285 286 284 284 284
290 291 291 292 292 292 291 292 292 292 292 292 289 288 287 288 286 286 287 286 286 287 288 288 288 288 288 288 288 289 288 287 287 289 290 291 291 289 289 290 290 289 287 287 287 286 285 286 286 289 290 290 290 290 289 289 288 287 287 287 287 286 284 281 281 282 280 277 277 278 278 278 279 280 280 280 280 280 280 283 284 285 285 284 284
290 290 290 290 291 291 291 291 291 292 291 290 290 289 287 287 287 287 287 286 287 287 287 287 288 287 286 286 287 287 286 287 287 288 289 290 290 290 289 289 290 289 288 287 287 286 286 286 286 287 289 289 289 289 289 288 288 285 286 288 289 287 282 280 279 277 277 277 275 274 273 275 276 277 278 279 279 279 279 280 281 282 282 282 283
289 289 289 289 289 290 290 290 290 291 290 290 289 289 287 287 287 286 287 287 287 287 287 287 287 286 285 285 285 285 285 285 286 286 287 289 289 290 289 289 291 289 289 287 287 285 285 286 286 286 287 288 288 289 288 288 287 287 289 289 288 285 281 276 276 276 274 273 274 275 274 275 276 275 276 277 278 279 279 279 279 280 279 279 281
288 288 287 288 288 288 288 289 289 289 289 289 289 288 287 287 287 287 287 287 287 287 287 287 286 285 283 283 284 284 284 285 285 286 286 287 288 289 289 290 291 289 289 288 286 285 285 286 286 286 287 288 289 289 289 288 287 289 289 288 285 282 278 277 276 276 276 274 274 273 274 275 275 276 277 277 278 279 278 278 278 278 280 282 283
287 287 287 287 287 288 287 288 288 288 288 288 288 288 287 287 287 286 287 287 287 287 287 287 286 285 284 282 282 282 283 284 284 285 286 286 288 289 290 290 291 290 286 285 285 285 285 286 286 286 287 288 289 288 287 286 286 285 284 282 280 277 275 275 274 274 275 274 273 272 273 276 278 278 278 278 276 275 271 274 274 278 281 282 281
286 286 287 287 287 287 287 287 287 287 287 288 288 289 288 287 287 287 287 287 287 287 287 286 286 286 284 282 282 282 282 283 283 284 285 286 287 288 289 288 286 286 285 285 285 285 286 286 286 286 285 284 283 281 280 280 281 281 280 278 275 274 273 274 272 274 273 273 274 274 275 275 276 276 275 274 274 273 271 271 273 278 279 280 278
286 286 286 287 287 287 286 287 286 285 285 286 287 288 288 287 287 287 287 287 287 287 287 286 286 285 284 284 282 281 280 281 281 282 283 285 286 286 286 285 284 284 284 284 285 285 285 285 285 284 283 282 281 280 279 278 276 275 274 274 273 273 273 273 273 272 272 273 273 273 273 272 272 273 271 271 271 271 272 272 270 271 274 275 275
285 285 286 286 286 287 287 284 285 285 284 285 285 286 286 287 287 287 287 288 287 287 286 286 286 285 285 283 281 280 279 279 280 281 281 283 284 285 285 284 283 283 283 284 285 284 284 284 283 281 279 277 275 273 273 272 272 272 270 270 270 271 274 277 277 277 276 275 273 269 268 268 268 269 270 270 269 269 270 270 269 269 270 269 269
285 284 285 285 285 285 286 285 285 285 284 283 285 286 286 286 287 288 288 288 289 288 287 287 287 287 286 283 281 279 278 278 279 283 281 283 283 283 283 282 283 282 283 285 283 283 282 281 279 278 277 275 273 272 270 272 271 271 270 269 268 269 269 271 273 276 277 276 274 272 270 268 268 268 268 269 269 267 268 267 267 267 267 268 268
284 283 284 284 284 284 284 284 284 284 284 284 284 284 284 285 286 287 287 286 287 287 288 287 287 286 284 283 282 282 280 280 282 284 283 284 284 284 284 284 284 283 284 285 284 282 282 280 279 277 276 275 274 273 272 271 271 271 271 273 271 270 270 271 272 275 276 275 274 273 272 270 267 266 267 269 267 265 267 270 265 265 265 264 266
283 282 282 282 283 283 283 283 283 283 283 284 284 284 284 284 286 286 286 285 286 286 287 286 287 286 284 281 280 284 283 283 283 283 284 285 285 285 285 285 284 285 285 284 282 282 281 280 278 276 275 275 274 273 271 271 271 271 271 272 271 271 271 270 270 272 274 273 271 270 268 265 264 265 267 269 268 264 264 265 265 267 266 265 267
281 281 281 282 283 282 282 282 282 282 283 284 284 284 284 282 283 285 285 285 286 286 286 286 286 285 285 282 279 279 282 283 283 283 283 283 284 284 285 285 285 286 286 285 282 281 281 280 278 277 275 274 274 273 272 272 272 272 271 270 269 269 269 269 269 269 271 271 270 270 268 267 264 264 264 266 266 263 263 265 265 266 266 267 267
280 280 280 281 282 282 282 281 281 282 283 283 284 284 284 283 280 281 283 285 285 285 285 285 285 285 285 284 283 282 282 283 283 283 283 283 284 284 285 286 286 286 286 283 281 281 281 280 279 278 277 276 275 275 274 274 273 272 271 270 268 266 266 266 268 268 269 269 269 269 269 268 267 265 265 264 264 263 264 264 264 265 265 266 268
280 280 280 280 281 282 282 281 281 282 283 284 284 284 284 284 284 282 280 281 282 284 285 285 284 285 284 284 283 283 283 283 283 283 283 284 284 285 285 284 287 287 285 282 281 280 280 279 278 277 277 276 275 274 274 273 272 271 270 268 266 265 263 263 266 267 268 268 268 268 268 266 265 262 262 263 263 264 264 265 265 265 266 267 267
279 278 278 279 280 281 282 282 282 282 283 283 284 283 283 284 284 282 281 281 280 279 280 282 283 284 282 283 283 284 284 283 283 284 284 284 284 284 285 282 282 282 282 280 280 280 279 279 278 277 276 275 274 274 273 272 270 269 268 267 266 265 265 265 265 266 266 266 266 267 267 266 264 264 264 263 264 265 266 267 267 267 267 266 265
278 279 280 280 281 281 282 283 283 283 283 283 284 283 283 283 282 282 282 282 281 279 279 280 281 282 282 282 283 283 283 283 283 283 283 284 284 283 278 276 277 278 278 278 279 278 277 277 276 275 275 274 273 273 272 270 269 268 268 266 266 265 265 264 264 264 264 264 265 266 266 266 266 266 265 265 265 266 266 266 267 268 268 266 265
276 277 279 280 281 282 282 283 283 284 284 283 283 283 283 282 282 282 282 281 280 280 279 279 279 279 280 279 281 281 282 282 283 283 283 283 283 280 277 277 277 275 275 274 275 274 275 274 274 274 273 272 271 271 270 269 268 267 267 266 265 264 263 263 264 264 263 262 261 264 265 265 265 265 265 265 265 266 267 267 267 268 268 268 268
275 276 278 280 281 282 282 283 283 283 283 283 283 282 282 281 281 281 281 280 279 279 278 278 278 277 275 276 279 278 278 280 280 281 282 282 277 275 274 274 273 274 273 272 272 273 272 271 272 272 271 270 269 269 268 267 267 267 266 265 265 264 266 265 264 262 262 261 261 263 264 265 265 265 266 265 265 266 266 266 265 266 266 267 265
274 276 278 279 280 281 282 282 282 282 282 282 282 281 281 281 281 280 280 279 278 278 278 278 277 276 276 277 275 275 275 274 274 273 273 271 270 272 272 272 271 271 270 270 269 269 269 269 268 268 268 268 268 268 267 266 266 266 266 265 265 264 263 262 262 261 260 260 260 262 264 264 264 264 264 264 265 265 265 266 265 265 264 264 264
273 275 277 279 280 281 282 282 282 282 282 281 281 281 281 280 280 280 279 279 278 277 277 277 276 276 276 274 273 274 273 273 272 270 269 269 268 268 270 269 268 268 268 268 268 268 267 266 266 266 266 266 266 266 266 266 265 265 264 264 263 262 262 261 261 260 259 258 260 262 264 264 263 264 264 264 263 264 264 264 265 265 264 264 265
273 275 276 278 279 280 281 281 281 282 282 281 281 281 280 280 280 280 279 278 277 277 277 276 275 274 274 273 275 275 273 270 267 267 267 267 267 267 267 266 267 266 266 266 266 266 265 265 265 265 264 264 264 264 264 264 264 263 263 262 262 261 260 260 260 259 259 260 261 262 263 263 263 263 263 263 265 264 264 264 263 264 264 264 265
273 275 276 277 279 280 280 280 281 281 281 281 281 281 280 280 280 279 278 277 277 276 275 272 271 272 273 274 274 272 268 267 266 264 264 264 264 264 264 265 266 266 265 265 265 264 264 264 264 264 264 263 263 263 264 264 264 263 262 262 261 260 260 259 259 259 259 259 260 261 261 262 262 262 263 264 261 261 261 261 261 261 262 262 263
273 275 276 277 278 279 280 280 280 280 280 280 280 279 280 280 279 278 277 276 275 273 270 270 271 271 271 271 269 268 265 264 263 262 262 262 262 262 262 262 263 263 264 264 265 265 265 264 264 264 264 264 264 264 264 264 264 263 263 262 261 261 260 259 259 259 258 259 259 260 260 261 261 260 260 259 257 257 257 258 258 258 259 260 262
272 274 275 276 277 278 279 279 279 280 280 279 279 279 279 278 278 277 276 274 273 271 271 270 269 268 267 267 266 265 263 262 261 261 260 260 259 259 259 260 261 262 262 262 263 263 263 262 262 262 262 263 263 264 264 264 264 263 262 262 261 261 260 259 259 258 259 259 259 258 258 260 260 258 258 256 255 257 255 256 256 256 256 258 260
272 273 274 274 275 276 277 278 278 278 277 277 278 277 277 277 276 275 273 272 271 270 270 268 268 267 266 265 264 263 262 262 261 261 260 259 259 259 259 259 260 260 260 260 261 262 262 262 262 261 261 262 262 263 263 263 263 263 263 262 261 260 259 259 258 258 258 259 259 259 258 258 257 256 254 254 255 256 256 255 257 260 257 257 257
271 272 272 272 273 273 273 274 274 276 276 276 276 275 275 275 274 272 271 270 270 269 267 267 267 266 265 264 263 262 261 261 261 260 260 259 259 259 259 259 259 260 260 260 260 261 261 261 261 260 260 260 260 261 261 261 261 261 261 260 260 259 258 257 257 257 257 257 257 258 258 257 256 257 258 254 254 254 254 255 255 256 256 258 259
270 271 271 271 271 271 272 272 273 273 274 274 274 273 272 271 270 270 269 269 268 267 266 266 265 264 263 262 262 261 261 260 260 259 259 259 259 259 259 259 259 259 259 260 260 260 260 260 260 260 260 260 260 261 261 261 261 261 261 260 260 258 257 257 257 257 256 256 257 258 258 257 257 257 257 256 255 256 256 255 256 257 259 260 259
270 270 270 270 271 271 270 270 270 270 270 270 270 269 269 269 268 268 267 267 266 266 265 264 263 262 262 261 261 261 260 260 259 259 259 258 258 259 259 258 258 258 259 259 259 259 259 259 260 260 260 261 261 260 260 261 261 261 260 260 260 260 260 259 257 256 256 256 257 257 257 256 256 256 255 254 254 254 255 255 258 259 260 260 261
268 269 270 270 269 269 269 268 268 268 267 267 267 267 267 267 266 266 266 265 265 264 263 262 261 261 261 260 260 260 260 259 259 259 258 258 258 258 258 258 258 258 258 258 258 258 259 258 259 259 259 260 260 260 260 260 260 261 261 261 263 263 262 261 258 256 257 256 255 255 255 255 257 257 256 254 254 254 254 254 256 258 258 258 258
266 267 267 268 268 268 268 268 267 267 266 266 266 265 265 265 265 264 264 264 263 262 262 261 261 260 260 259 259 259 259 258 258 258 258 258 258 258 258 258 258 257 257 257 257 257 257 258 258 258 258 258 259 259 259 260 260 260 260 263 264 264 263 262 261 259 256 253 255 255 257 256 256 257 256 255 254 254 255 255 256 257 255 253 254
265 265 266 266 266 267 267 267 267 266 266 265 265 264 264 264 263 263 263 262 261 261 261 260 260 260 260 259 259 259 258 258 258 258 258 258 257 257 257 257 257 257 257 256 256 257 257 257 257 257 257 257 258 258 258 258 258 260 263 265 264 264 263 262 259 260 258 256 254 255 255 256 256 256 256 254 253 253 257 257 255 254 254 254 254
Wind_Speed
9 10 9 10 12 12 13 12 14 13 12 11 12 12 11 10 10 10 7 9 9 9 10 10 10 10 10 9 10 9 9 9 9 9 9 9 9 10 9 10 10 9 9 9 9 9 10 10 9 9 8 8 7 7 7 8 8 8 8 8 8 8 8 8 10 10 5 6 6 5 7 7 6 4 8 6 6 5 5 6 5 4 5 4 5
10 11 10 10 11 12 13 12 12 11 11 12 12 12 11 11 11 8 9 10 9 11 11 10 9 9 9 9 9 9 9 9 9 9 9 10 10 9 9 10 10 10 9 10 9 9 9 9 9 9 8 9 8 8 8 7 8 8 8 8 8 8 8 8 7 7 8 3 5 4 4 4 6 4 8 9 9 7 6 4 3 3 5 5 5
9 8 8 9 11 12 12 11 10 10 12 11 12 12 11 10 9 10 11 10 10 11 10 10 10 9 9 9 9 9 9 9 9 9 10 11 11 10 10 10 10 10 10 11 10 8 8 9 10 9 7 8 9 9 8 9 8 9 9 8 9 9 8 9 8 8 8 4 4 3 4 3 6 6 6 7 7 5 6 5 3 2 4 5 3
7 6 7 9 11 11 11 11 11 10 12 12 13 13 12 11 9 11 12 10 10 9 9 9 8 9 9 9 9 10 10 9 8 9 11 11 11 11 10 10 10 10 11 10 9 9 9 9 10 9 7 8 8 8 8 8 8 8 8 8 8 9 7 6 8 9 6 8 4 5 4 4 4 5 5 4 4 4 3 5 3 4 3 2 2
5 6 5 7 6 7 9 9 9 11 12 11 12 13 12 11 9 11 9 9 9 7 7 7 8 9 10 10 10 10 10 9 9 9 9 9 10 10 10 10 10 10 10 10 9 9 9 10 9 8 7 8 8 8 7 8 8 7 8 8 8 7 6 7 7 7 8 8 5 3 4 5 4 3 4 4 3 2 2 2 3 5 5 4 4
7 6 6 7 8 7 8 7 9 11 11 10 11 11 9 7 7 6 7 9 7 7 8 7 9 10 10 10 9 9 8 9 10 10 10 9 9 9 8 9 9 9 9 8 8 8 8 9 8 8 8 9 9 8 8 9 8 8 9 8 7 6 7 6 6 6 7 8 7 6 3 6 4 4 4 3 4 3 4 4 3 3 2 5 5
8 6 6 6 7 8 8 9 10 10 10 11 10 8 8 7 7 8 8 7 7 8 7 9 8 9 10 8 9 9 9 8 9 8 8 8 9 8 7 7 7 7 6 7 6 6 7 7 8 8 9 9 9 9 8 8 8 9 8 9 7 6 7 7 6 6 7 7 5 6 6 4 4 5 2 1 1 2 2 3 3 3 2 2 5
7 6 6 6 7 9 8 7 7 9 8 7 8 8 7 6 8 7 6 8 9 9 10 11 9 8 8 9 9 7 8 8 8 8 8 9 8 8 7 7 7 6 5 5 6 6 6 6 6 7 8 8 8 8 8 8 7 8 7 6 7 7 7 6 6 7 7 7 7 6 5 4 2 2 0 0 0 2 2 4 5 3 5 2 2
7 6 6 7 9 7 4 3 5 7 6 7 7 8 8 7 6 6 7 8 8 9 8 8 7 7 5 6 7 7 8 9 9 9 8 7 7 8 7 7 7 7 6 5 5 5 6 6 6 6 7 9 10 9 9 9 8 8 6 7 7 7 6 6 7 7 7 7 7 4 3 4 4 3 3 3 5 5 1 2 1 3 2 4 6
7 7 6 8 7 5 5 5 5 6 7 9 9 7 6 6 6 6 8 8 7 6 6 6 8 9 9 7 6 7 7 6 9 12 11 9 9 7 7 6 7 6 6 6 6 6 6 5 5 8 8 6 4 4 4 6 7 6 5 6 7 7 6 7 7 7 7 7 7 6 6 6 5 5 4 3 1 1 2 2 1 2 2 4 5
9 8 9 8 6 6 6 6 5 7 9 8 6 5 6 5 6 6 6 6 7 7 7 9 9 9 10 10 9 8 7 6 11 12 11 11 8 7 8 7 7 7 7 8 8 7 5 5 4 5 4 3 2 4 5 5 5 6 5 5 6 7 7 7 7 6 7 8 5 4 5 5 5 4 4 3 2 2 3 3 2 2 2 2 3
9 10 9 8 7 6 6 6 6 8 6 8 7 6 5 5 6 6 5 6 6 5 8 9 9 8 7 7 8 8 7 8 12 12 11 11 8 7 6 6 7 7 7 7 6 5 5 5 3 3 2 2 1 1 2 3 5 5 5 4 5 5 2 4 5 6 5 5 6 7 5 6 4 4 3 3 4 2 2 2 3 3 2 2 2
10 10 10 8 8 6 6 6 8 8 7 6 4 4 5 5 5 6 7 5 4 6 7 6 7 6 7 9 8 6 5 9 12 12 12 11 10 8 5 5 5 5 5 5 4 4 4 4 3 3 3 4 2 2 3 3 3 3 1 3 3 3 3 3 1 2 3 4 6 5 6 5 4 4 3 5 3 3 2 2 2 2 2 3 5
9 11 11 9 7 6 6 7 8 7 5 3 3 4 5 7 6 5 5 6 7 6 5 6 5 6 6 6 6 5 5 8 11 12 11 11 10 7 5 5 4 3 3 3 3 4 5 5 5 5 2 2 3 4 4 4 4 3 2 2 2 3 5 4 3 2 1 4 4 6 3 3 5 5 4 5 5 4 4 3 3 3 3 3 1
11 10 11 12 9 6 5 6 7 5 3 3 3 4 6 5 6 7 8 9 9 9 9 7 6 6 5 5 5 5 4 8 10 11 11 10 10 7 4 3 3 3 3 4 5 5 5 5 3 4 4 5 5 5 5 5 4 4 4 3 2 1 2 2 2 2 1 1 3 3 3 2 3 4 4 4 4 3 3 3 3 2 1 1 2
11 9 10 11 11 11 6 6 6 4 4 4 4 6 7 8 9 7 6 5 4 4 3 4 6 6 5 5 5 5 5 9 10 10 10 10 10 5 5 5 4 3 3 4 4 3 3 4 5 5 5 5 4 5 4 4 5 6 5 4 3 2 3 2 3 1 1 1 2 3 3 3 4 4 3 2 2 3 4 4 4 3 2 1 0
12 10 10 10 11 10 9 8 7 5 5 5 7 8 8 9 7 5 7 7 8 8 8 7 7 7 7 7 7 6 6 9 11 11 11 11 8 5 4 4 4 4 4 3 4 3 4 4 5 6 5 4 5 5 7 6 4 5 5 5 4 4 2 2 5 8 8 8 9 9 9 9 8 7 7 6 3 4 5 4 1 2 2 1 1
14 10 9 9 10 10 10 9 9 7 6 8 10 9 7 4 5 6 9 10 9 10 8 7 6 7 8 8 8 8 6 8 11 11 12 12 8 6 5 5 4 5 4 3 3 3 3 6 5 5 5 5 5 6 7 5 4 5 6 7 6 4 3 2 4 5 8 10 10 10 10 9 9 9 8 8 6 3 5 6 4 5 3 2 2
14 14 13 9 8 9 9 9 10 9 8 10 9 8 9 9 5 4 7 7 6 6 6 7 6 6 6 7 8 8 7 8 11 11 12 12 8 6 6 6 6 5 6 5 3 4 4 4 6 5 4 4 6 5 5 4 3 4 5 6 6 5 4 4 5 5 4 5 4 5 5 5 4 4 5 10 9 6 3 3 4 5 5 4 4
14 14 14 11 9 9 8 9 10 10 11 10 7 8 5 4 6 9 6 6 7 6 7 7 8 6 6 7 7 7 8 7 9 12 12 12 10 7 6 7 8 7 6 7 6 3 3 4 4 5 6 6 6 5 4 4 3 3 4 4 5 5 4 5 2 3 4 5 3 3 3 3 4 4 5 5 5 4 3 3 3 3 3 4 2
14 14 13 13 11 9 8 8 11 11 10 10 7 5 5 6 5 6 7 6 5 7 8 7 7 7 7 7 7 7 7 8 9 13 12 12 12 10 6 7 6 7 7 7 6 6 4 3 3 5 6 5 4 3 3 4 4 4 4 4 2 4 7 6 4 5 5 4 4 4 3 3 4 4 4 4 3 3 3 3 2 2 4 4 3
12 13 13 13 13 12 12 10 9 10 9 7 7 8 6 6 7 7 7 6 7 7 7 7 7 6 6 6 7 7 7 10 9 12 12 12 12 12 7 7 6 8 7 7 6 5 5 5 4 4 6 6 5 6 6 6 5 3 2 5 8 10 6 5 5 5 5 5 6 4 4 4 5 4 4 4 3 3 3 3 1 0 2 2 3
12 13 13 13 12 12 12 12 11 8 8 7 8 9 6 7 7 7 8 8 8 8 8 8 8 7 6 5 5 6 7 7 11 9 11 11 13 13 12 7 10 8 8 8 7 6 5 5 4 7 8 8 9 9 9 9 6 5 10 10 10 11 8 6 7 6 6 5 5 5 3 3 5 3 3 3 3 3 3 2 2 1 0 2 3
12 13 13 13 13 10 10 11 11 9 9 8 8 8 8 8 8 8 9 9 8 8 7 7 7 8 10 8 6 6 6 6 8 11 9 12 14 15 16 14 11 8 7 6 6 6 6 5 6 10 9 9 10 10 9 6 5 10 10 11 11 8 6 7 5 5 6 5 5 4 3 2 2 3 2 2 2 3 2 3 3 2 4 6 6
12 13 14 13 13 11 10 9 11 11 9 7 8 9 8 8 8 8 8 8 8 9 8 8 9 9 10 11 8 7 6 6 6 8 11 11 14 15 15 13 12 12 8 6 7 6 7 9 11 11 9 9 10 10 8 10 11 11 11 10 7 6 6 6 6 6 5 4 4 2 2 2 3 1 2 2 2 3 2 4 3 4 5 7 7
14 15 14 12 12 12 12 11 10 10 10 8 9 9 9 9 9 9 9 9 10 10 9 9 8 8 11 11 9 8 7 6 6 6 8 9 9 12 12 13 12 12 11 9 11 12 11 12 13 12 11 9 7 6 5 6 10 11 11 9 5 5 5 6 4 6 6 2 2 4 1 1 2 2 2 2 6 5 3 3 3 3 2 4 4
14 14 14 13 12 11 11 11 9 8 8 8 8 8 7 8 8 9 10 10 11 10 9 9 9 9 10 11 8 8 8 7 7 7 7 8 7 9 10 10 12 13 10 10 11 9 11 10 9 10 9 11 10 8 7 7 7 6 6 5 5 5 5 4 5 5 3 4 4 2 1 1 1 3 5 5 5 4 4 1 3 2 1 2 3
13 13 15 13 12 11 11 13 12 8 8 8 8 8 8 9 10 12 13 13 13 12 11 12 12 12 11 10 9 8 8 8 9 10 10 9 9 8 8 9 9 10 11 11 8 8 9 10 11 8 8 7 6 5 5 5 6 6 6 5 5 5 5 6 6 5 4 4 4 3 3 4 4 2 2 4 4 4 4 3 1 2 3 1 2
15 15 14 11 12 12 10 10 9 8 8 8 9 10 11 11 12 12 10 9 11 14 15 14 13 11 11 12 12 10 7 10 12 10 10 11 12 12 11 12 10 11 11 14 10 9 8 8 7 7 7 7 6 6 5 6 6 6 5 5 5 5 4 4 5 4 4 4 5 5 3 3 4 2 2 4 4 3 3 3 3 5 4 6 5
16 16 14 11 11 11 10 10 9 8 8 8 8 8 7 8 9 10 9 8 10 8 8 10 11 11 10 9 10 14 16 12 15 21 17 14 14 13 12 14 15 13 18 19 10 10 8 8 7 7 7 6 6 6 5 5 6 5 5 5 5 5 4 4 3 4 5 5 4 4 3 2 3 2 3 3 2 3 4 4 3 2 4 5 5
15 16 14 12 11 10 10 10 9 8 8 8 7 8 7 5 7 8 8 7 8 7 7 6 10 12 11 10 7 6 10 16 22 21 21 20 18 17 17 17 20 22 24 14 9 9 9 8 7 6 6 6 6 6 6 6 6 5 5 3 3 4 3 3 1 3 5 5 5 4 4 5 3 1 3 2 2 2 3 3 4 6 5 5 5
14 15 14 13 13 12 9 10 9 8 8 7 8 8 8 8 4 5 8 10 10 10 9 9 10 12 12 13 10 6 14 19 21 20 19 21 20 19 20 19 20 22 21 16 11 8 8 8 7 7 7 6 6 6 6 6 5 6 5 5 3 2 3 3 1 4 5 5 5 5 4 4 3 2 2 2 4 3 3 4 5 5 5 5 5
14 15 15 13 13 13 11 9 9 8 9 8 8 8 8 9 10 7 5 8 12 12 12 11 12 12 13 14 15 15 16 17 20 19 18 18 19 18 20 20 20 21 19 10 7 8 7 7 7 7 7 7 6 6 6 6 6 5 5 5 4 3 3 2 3 4 4 4 5 4 4 4 3 5 4 4 4 4 3 4 3 4 5 5 5
14 12 13 13 13 12 11 9 9 9 9 9 9 9 9 9 9 8 9 7 6 7 10 14 14 14 14 15 15 16 18 19 19 18 18 17 18 18 18 15 18 20 14 8 8 7 7 7 7 7 7 6 6 6 6 6 5 5 5 4 4 4 3 2 4 4 4 4 5 5 5 4 5 6 5 6 4 4 4 4 3 4 4 4 4
14 16 22 16 11 12 11 10 9 9 8 9 9 9 9 8 7 9 11 12 12 12 9 8 11 14 12 12 15 17 18 18 19 20 20 18 17 17 15 12 12 10 8 5 6 7 8 8 8 7 7 7 7 7 7 6 6 6 7 6 5 4 3 3 4 4 4 5 5 5 5 5 5 5 5 5 4 5 4 3 4 4 4 4 4
15 14 13 13 12 11 11 10 10 9 9 9 8 8 8 8 9 9 8 7 7 8 8 7 8 10 15 14 17 17 18 20 20 19 18 19 19 19 12 9 9 9 8 7 7 7 6 7 7 7 6 6 6 6 6 6 6 6 6 6 6 5 5 4 5 4 4 5 5 5 5 5 5 5 5 5 4 4 4 3 3 4 4 4 3
12 13 13 11 11 11 11 10 10 10 9 8 8 8 8 8 7 7 7 8 8 7 9 10 10 9 8 8 13 15 17 18 18 19 19 17 19 10 7 10 10 9 7 7 7 6 7 6 6 6 6 7 6 6 6 6 6 6 5 5 5 5 5 4 4 5 5 5 5 6 5 5 5 4 5 5 4 4 4 4 4 4 4 4 4
13 13 12 12 11 11 11 10 10 10 9 8 8 8 8 8 9 9 9 9 9 10 11 10 11 14 16 13 11 10 12 13 14 12 13 13 7 5 5 6 7 9 8 6 6 7 6 5 6 7 6 7 7 6 6 6 6 6 6 6 5 5 7 6 6 5 5 5 6 6 5 5 4 5 5 5 4 4 4 4 3 4 3 4 3
12 18 22 22 17 13 10 9 9 9 9 8 8 9 9 9 9 9 9 9 9 9 9 11 11 11 11 11 11 12 14 10 10 10 8 6 5 5 5 6 6 6 6 6 6 6 6 6 5 6 6 6 7 6 7 6 6 6 6 6 6 5 6 4 5 5 5 6 6 6 5 5 4 5 5 5 4 4 4 4 3 3 4 4 3
12 11 13 17 13 13 11 10 9 9 9 9 9 9 9 10 10 10 9 10 10 10 11 11 10 10 9 10 11 11 12 11 10 9 8 7 6 5 5 7 7 6 6 6 6 6 7 6 6 6 6 6 6 6 6 6 6 6 6 6 6 6 5 5 5 6 6 6 6 6 5 5 5 5 5 4 4 4 4 4 3 3 3 2 2
11 12 12 13 13 11 10 10 9 9 9 9 9 10 11 11 10 9 9 10 10 10 9 8 7 7 7 9 11 8 7 9 10 8 7 8 7 6 6 6 6 6 6 6 6 6 6 6 6 6 6 6 6 6 6 6 6 6 6 6 6 6 6 5 5 6 6 6 6 6 5 5 5 5 5 4 4 4 3 4 3 3 3 2 2
11 11 11 11 11 11 10 9 8 9 9 9 9 10 10 10 10 10 10 10 9 9 8 7 7 7 10 14 12 13 10 9 8 8 8 8 7 6 6 6 5 6 6 6 7 7 7 7 6 6 6 6 6 6 6 6 6 6 6 6 6 6 6 5 5 6 6 6 6 6 5 5 5 5 5 4 4 4 4 4 4 3 3 2 1
12 11 10 9 9 9 9 8 7 7 8 8 8 7 8 9 9 9 10 9 9 9 10 11 9 8 9 12 13 14 9 7 6 8 7 6 5 6 6 6 5 5 6 6 5 6 7 7 7 6 6 6 6 6 7 6 6 5 6 6 6 6 6 5 5 6 6 6 6 6 6 5 6 5 5 5 4 5 4 4 3 4 3 2 1
10 9 9 8 7 8 6 7 8 8 9 8 7 5 6 6 7 8 9 10 9 9 10 9 9 8 7 9 11 11 9 8 8 7 7 6 5 4 6 6 6 8 8 9 9 9 7 7 7 7 7 7 6 6 5 5 5 6 6 6 6 5 5 5 6 6 6 6 6 6 6 5 5 5 5 4 4 5 4 4 4 3 3 3 2
9 8 7 6 5 5 5 4 5 5 4 5 6 7 7 8 8 7 8 9 9 9 8 9 9 10 9 10 8 7 8 8 7 7 7 6 6 4 3 5 7 9 8 8 7 8 8 7 7 7 8 6 5 6 5 5 5 5 5 6 6 6 5 5 5 5 6 6 6 6 6 6 5 5 5 4 4 5 4 4 3 4 3 2 2
7 6 4 2 1 0 1 2 1 3 5 6 7 7 6 7 8 9 9 9 9 10 9 9 8 8 9 9 7 7 7 8 7 7 7 7 6 4 4 4 6 7 7 7 7 7 7 7 8 8 7 7 6 6 6 6 5 5 5 5 5 5 5 5 5 6 6 6 6 5 5 5 5 5 6 5 5 4 5 3 3 3 3 2 1
7 4 4 1 1 2 2 3 4 3 4 5 6 8 8 8 8 8 8 10 10 9 9 9 9 9 7 6 7 8 8 8 7 7 7 8 6 5 5 5 7 7 8 8 8 8 8 8 8 8 8 7 7 7 6 6 6 5 5 6 6 6 5 4 4 5 5 5 5 5 5 5 5 4 6 4 4 4 4 3 3 3 3 2 1
7 4 2 1 1 3 4 6 6 6 5 6 6 7 8 8 9 9 9 10 9 9 8 8 7 7 8 7 7 8 8 8 7 8 7 7 5 6 6 6 7 7 8 8 8 7 7 7 7 8 8 8 8 7 7 6 6 6 6 5 5 5 6 6 5 5 5 5 5 5 5 6 5 5 4 5 4 4 5 3 3 2 3 2 3
6 6 3 2 3 4 5 6 7 7 7 7 8 8 7 8 9 8 8 9 9 10 9 8 8 7 8 8 8 8 8 8 8 8 7 6 6 6 7 7 7 8 8 8 8 8 8 7 7 7 7 7 7 7 7 6 6 6 5 5 7 10 9 7 5 5 5 5 5 5 5 5 5 4 4 4 4 3 4 3 2 2 2 1 1
6 5 5 4 4 5 5 6 8 9 8 8 8 8 7 7 8 8 8 8 8 7 7 7 7 7 7 8 8 8 8 7 7 7 6 6 6 7 6 6 6 7 8 10 10 9 8 7 7 7 7 7 7 6 6 6 6 5 4 6 10 10 8 8 6 6 5 4 5 5 5 5 4 4 4 4 4 5 4 3 2 4 2 2 2
7 6 5 5 5 4 6 7 7 7 8 9 9 8 8 8 8 8 10 9 8 8 7 7 8 8 8 8 8 8 8 8 7 7 7 7 6 6 5 5 7 8 8 7 6 9 8 7 7 7 6 6 6 6 6 6 5 5 7 10 11 9 9 7 6 6 7 5 5 5 5 5 4 4 3 3 3 4 5 3 3 3 2 2 1
Wind_Direction
231 230 228 230 229 223 219 214 216 216 217 214 216 219 219 214 213 210 201 208 203 204 211 210 204 205 201 201 201 199 200 202 198 196 197 201 204 207 205 202 206 211 210 212 207 210 213 217 220 220 211 214 214 215 215 220 218 225 226 228 232 227 233 243 252 262 235 223 234 238 239 246 283 278 285 282 284 261 229 244 250 250 258 267 269
228 229 220 220 223 226 226 221 217 213 213 215 217 219 216 215 213 198 203 211 198 210 212 209 207 203 200 201 202 205 203 202 197 193 197 201 206 205 206 204 206 210 208 215 210 210 210 215 221 221 208 213 214 216 216 214 217 222 222 225 232 234 225 237 254 262 270 204 240 230 256 198 234 246 264 287 287 283 274 268 264 239 255 258 261
245 236 226 218 222 223 225 223 216 211 212 215 217 218 218 217 205 202 210 210 204 209 207 204 203 199 200 202 202 206 205 203 196 193 197 200 203 204 204 204 204 206 209 214 214 205 204 211 220 220 209 212 215 221 214 219 215 220 225 220 230 233 232 232 243 251 258 249 202 233 219 244 223 258 261 256 273 299 309 304 289 269 242 247 271
285 272 245 233 227 225 224 224 217 212 213 214 215 217 215 216 205 208 212 208 206 207 199 200 193 192 199 201 203 206 206 203 196 195 198 198 202 203 202 204 206 207 210 212 212 203 205 210 221 218 208 211 216 220 220 218 217 222 226 227 230 235 236 237 238 250 249 255 193 209 217 218 257 247 261 274 264 279 259 277 274 270 279 321 313
293 284 278 267 253 239 237 228 221 218 217 216 217 218 215 215 206 209 209 209 211 191 197 191 189 193 199 201 204 206 205 198 195 197 200 200 202 202 202 203 205 207 208 211 208 205 205 211 219 211 207 216 220 221 217 218 220 221 227 228 229 231 232 231 241 242 256 260 259 210 214 229 241 246 232 245 288 274 305 288 289 310 328 316 306
283 267 254 252 250 237 238 234 230 226 221 220 221 221 216 213 206 210 204 213 203 193 191 189 192 197 201 203 201 202 198 196 197 198 198 197 199 201 199 198 202 205 207 208 207 204 206 211 213 209 208 214 220 221 216 218 215 219 226 230 229 228 228 235 234 241 244 251 243 255 218 235 267 247 245 201 222 279 317 313 345 343 331 317 308
285 275 261 244 250 241 232 227 227 229 225 222 221 216 212 207 195 205 199 201 195 194 192 191 200 197 202 195 197 195 193 193 195 194 192 191 192 191 192 192 194 198 203 201 201 199 203 205 207 205 212 214 217 217 216 216 213 221 220 224 225 221 230 230 229 234 240 250 248 227 231 234 214 255 292 57 182 193 241 328 338 312 342 262 291
277 270 263 254 243 245 237 237 241 238 236 233 224 218 211 199 203 200 176 194 197 194 194 198 198 195 196 192 194 183 180 184 187 186 184 183 181 187 185 185 185 192 193 195 192 197 201 205 207 206 209 214 216 221 212 219 212 224 214 214 216 217 229 229 230 234 240 247 247 244 223 222 239 232 277 53 36 300 207 182 217 276 289 315 242
276 265 262 257 254 252 268 276 271 272 261 243 229 220 211 207 200 188 191 201 201 201 195 187 174 187 184 181 172 175 178 184 182 176 172 170 164 153 167 178 182 188 195 199 204 204 209 208 208 212 211 220 226 227 221 215 213 222 215 200 213 213 228 225 230 237 242 245 254 239 237 230 233 222 246 200 203 215 220 126 210 251 282 313 300
288 280 265 260 265 267 256 244 232 236 240 236 233 225 216 208 193 193 201 202 196 186 177 177 177 177 173 173 173 173 181 181 181 177 175 171 171 175 176 185 185 189 190 197 206 206 201 197 196 189 179 177 180 212 231 231 227 229 219 199 214 216 223 234 230 226 233 238 243 241 238 232 222 208 202 220 175 96 97 99 173 270 313 280 283
305 295 285 277 272 272 266 253 237 235 233 238 239 228 220 202 197 202 197 188 184 180 174 174 183 179 175 171 174 183 182 181 173 174 174 169 166 173 179 184 187 189 192 195 203 203 205 203 187 165 164 174 214 228 231 236 242 244 251 235 216 199 213 231 235 218 223 235 234 210 218 229 225 197 183 165 137 162 179 162 182 217 242 288 284
299 295 284 288 279 264 255 253 239 239 234 233 226 216 200 191 200 197 185 186 191 176 181 185 178 175 170 171 178 181 181 165 167 169 168 167 166 170 177 183 187 190 191 194 196 191 197 199 205 170 147 149 136 176 222 238 245 257 259 267 272 264 227 219 226 207 200 221 225 221 208 221 208 179 171 129 170 183 200 163 180 181 203 214 243
299 294 289 284 276 265 254 242 239 237 231 235 227 195 188 193 194 185 194 185 161 183 189 168 176 173 170 175 183 174 171 164 168 165 165 164 167 166 173 177 182 188 181 186 186 192 192 198 208 196 143 148 163 182 190 214 232 253 253 136 73 74 117 97 4 244 184 203 226 221 201 183 172 208 183 171 145 169 154 142 173 161 175 195 231
295 291 293 286 270 253 239 236 239 237 219 206 197 209 199 204 193 176 153 157 179 182 178 180 167 173 177 174 169 164 168 176 169 164 162 163 167 163 161 163 167 163 178 181 191 195 196 197 203 212 177 168 192 194 195 193 192 184 166 150 122 65 58 56 60 42 214 211 189 215 223 161 184 180 189 156 150 171 168 207 182 184 195 211 246
297 292 292 293 292 264 239 235 246 243 204 176 186 222 221 207 187 182 177 180 181 185 180 178 179 171 168 162 163 170 169 172 170 163 160 161 164 159 146 145 149 171 182 193 194 190 182 180 184 202 197 202 198 194 188 188 176 176 161 149 122 83 57 37 22 3 24 140 176 177 160 159 137 143 161 177 175 162 167 184 178 161 149 313 339
297 296 293 292 296 300 285 261 246 225 199 186 194 218 224 211 198 187 175 177 162 136 144 156 168 172 168 162 162 170 166 173 166 161 159 163 160 152 158 165 164 168 172 175 179 177 170 180 189 178 180 185 191 188 177 156 167 166 162 144 123 96 57 8 348 23 93 114 120 129 131 119 120 121 104 104 100 83 67 82 67 70 79 47 350
305 300 293 291 296 297 298 285 268 234 205 198 210 215 216 224 212 178 174 181 177 182 185 181 176 171 171 174 174 169 165 178 167 165 165 165 156 154 159 157 172 177 176 164 158 154 161 168 165 160 164 173 171 159 156 155 168 170 161 151 134 125 95 5 43 68 72 76 84 91 99 105 97 89 83 79 103 144 111 105 147 137 104 117 314
311 310 294 292 290 289 284 274 267 248 219 220 219 218 211 236 227 197 187 181 190 195 176 168 174 176 174 178 178 168 166 173 169 167 167 166 157 159 163 166 173 164 150 141 132 140 139 155 150 149 163 168 165 149 145 140 157 162 157 148 145 148 123 77 78 64 65 70 73 75 75 80 85 81 74 66 59 97 147 187 179 122 130 145 167
310 312 310 299 283 277 272 265 261 257 241 238 229 218 208 206 207 217 221 193 187 161 167 170 167 171 176 170 163 164 161 169 172 167 168 166 160 159 164 168 166 169 157 137 129 135 137 131 130 137 147 170 173 169 146 128 141 168 172 164 168 175 165 144 138 127 114 88 48 63 50 47 53 61 51 56 50 41 56 105 128 142 144 161 150
304 304 303 300 289 276 266 257 253 248 246 250 239 231 210 181 186 192 216 201 176 168 169 171 170 174 165 165 172 169 160 167 175 172 170 168 162 160 169 172 181 169 163 155 147 147 138 130 140 153 159 168 168 162 158 155 167 176 163 183 176 181 145 132 101 120 115 113 106 88 89 56 53 50 42 40 35 40 52 52 69 93 117 141 166
299 299 298 299 296 282 257 241 249 247 242 244 242 223 200 202 186 183 195 195 178 171 175 172 167 166 168 169 167 170 166 161 176 174 172 172 174 173 180 187 174 162 161 162 168 157 155 152 149 164 163 156 158 157 179 199 172 165 169 182 162 127 120 103 144 139 119 113 99 84 70 60 52 49 46 40 33 25 41 52 55 103 134 143 147
296 297 296 294 294 293 288 270 243 246 247 239 236 228 213 189 190 190 183 181 189 187 175 169 166 159 158 163 165 164 162 163 165 178 175 182 188 188 189 190 173 156 157 168 163 165 157 151 160 159 150 156 161 171 175 185 159 107 120 130 130 131 122 125 124 117 108 105 98 77 59 57 53 43 34 30 19 12 31 34 34 267 234 167 153
296 295 293 293 290 286 286 282 274 261 251 233 224 229 201 190 190 179 178 184 187 187 182 174 165 162 155 158 162 160 159 159 162 166 175 184 198 204 197 186 174 164 168 171 169 148 125 135 146 158 152 156 156 146 141 136 143 143 147 141 133 122 116 114 114 104 98 91 90 81 54 55 59 46 28 12 348 3 24 26 10 343 35 77 63
292 292 291 288 289 283 273 274 269 259 248 233 222 221 205 197 190 187 181 179 185 190 191 179 173 172 163 162 161 161 159 153 161 159 165 186 200 200 199 196 178 172 163 154 141 138 135 153 148 144 158 159 147 142 133 120 116 126 124 123 119 113 108 105 92 102 99 90 85 82 58 32 67 39 11 333 333 331 358 17 11 38 95 101 91
289 285 286 286 285 285 275 257 258 258 249 221 219 218 209 188 191 193 180 182 186 194 194 189 189 185 170 159 168 160 161 153 151 161 169 185 194 192 189 180 169 149 133 128 132 136 148 149 149 161 156 136 131 123 107 95 102 101 102 98 99 103 106 109 119 109 99 95 105 102 69 40 59 38 338 346 344 16 21 2 26 62 89 94 92
288 285 283 281 280 280 278 270 251 245 245 229 222 216 203 195 199 189 188 191 190 193 192 189 190 182 185 145 161 162 160 155 151 160 170 182 183 184 161 147 139 132 126 128 133 145 154 150 145 126 110 107 105 107 102 97 82 75 79 83 85 95 110 113 106 107 119 126 123 117 84 16 41 46 35 35 49 21 3 9 53 48 66 110 89
282 283 282 283 278 272 269 271 263 245 234 228 224 220 208 202 200 196 195 194 193 193 188 186 187 186 182 183 170 163 166 166 161 161 162 166 165 158 138 131 125 124 125 137 147 151 138 136 131 128 120 115 106 102 100 91 77 64 63 70 80 85 92 110 131 126 129 126 118 112 56 14 7 35 33 46 43 9 7 359 80 18 25 46 84
286 283 281 282 281 278 272 263 257 246 231 221 216 217 212 203 201 202 200 198 191 193 186 188 191 189 186 176 168 163 173 175 177 172 171 162 158 152 143 141 141 149 147 151 148 136 129 121 120 116 112 100 95 81 76 76 81 83 72 69 70 70 82 101 101 102 115 118 106 90 44 38 48 22 44 56 43 8 353 16 58 42 25 62 56
292 286 282 279 277 276 270 267 255 242 231 221 224 214 202 201 209 217 219 209 202 193 191 197 195 192 180 173 167 178 176 192 196 178 171 165 157 152 154 154 152 151 157 145 130 122 123 123 126 129 128 125 113 106 98 90 74 75 79 72 64 64 61 67 95 106 111 96 80 76 58 50 44 13 62 61 29 4 345 39 24 72 35 57 82
296 290 288 283 278 277 272 263 252 244 232 223 221 232 237 226 222 215 214 210 222 235 212 204 190 170 173 190 185 180 193 189 158 172 171 160 157 153 145 145 149 149 155 150 140 137 143 142 148 145 143 140 137 134 130 121 113 95 86 84 79 76 76 80 82 103 99 95 100 92 90 82 52 24 62 79 29 9 355 54 38 52 77 79 85
291 290 290 288 283 277 268 261 253 240 235 227 217 217 214 220 218 215 191 178 183 187 180 167 160 173 169 165 170 146 120 145 157 164 167 167 160 153 151 149 151 154 154 143 139 147 149 150 151 149 151 146 149 152 141 135 133 127 115 104 88 97 95 93 75 100 105 110 102 103 97 98 90 58 85 82 79 11 20 30 61 62 87 97 90
284 285 289 290 291 282 265 257 249 238 236 226 222 214 208 192 186 192 172 167 162 156 154 156 164 167 168 160 147 130 153 155 154 160 159 160 159 157 157 156 155 157 159 150 132 147 156 154 156 162 158 158 159 151 154 150 150 144 140 127 113 114 132 127 138 120 120 116 121 114 101 93 98 88 88 91 89 63 55 52 54 79 81 81 83
276 280 283 287 287 283 271 256 242 235 231 223 222 213 212 205 180 168 173 164 158 154 153 158 164 168 166 170 165 162 159 155 154 154 155 153 153 155 157 156 155 156 154 151 154 153 158 159 163 162 165 166 160 158 154 148 147 147 146 144 140 159 164 175 125 114 116 126 119 116 110 100 102 98 93 94 95 83 74 77 67 74 77 82 78
275 275 281 281 283 281 272 257 243 234 227 224 219 213 216 208 201 175 152 152 148 155 159 162 163 164 165 169 167 158 153 150 150 151 150 147 145 146 148 152 155 161 164 156 160 163 162 162 165 167 167 154 154 148 149 147 144 139 127 117 126 142 170 163 107 115 112 116 117 115 113 110 117 115 103 92 94 100 87 84 83 86 80 87 94
281 277 273 269 268 270 267 257 245 234 226 220 217 213 213 206 192 183 182 178 176 167 159 158 162 159 157 162 152 145 146 145 149 149 148 143 139 135 130 139 154 168 168 164 164 163 169 170 170 167 164 164 164 157 154 149 144 143 143 135 135 144 142 121 123 124 129 126 117 112 118 118 115 112 118 115 105 101 103 99 91 100 102 93 85
286 281 279 272 265 265 261 252 240 231 224 219 212 208 202 194 191 193 189 180 169 158 146 148 146 148 145 146 143 141 143 148 151 148 146 146 144 139 137 152 153 170 171 171 170 167 167 166 159 160 157 151 148 150 150 149 149 146 147 147 151 148 140 133 136 134 123 115 117 117 108 97 100 105 99 96 105 109 106 104 100 96 88 76 69
277 278 276 272 267 263 259 249 238 229 221 213 202 199 196 193 187 179 177 173 165 160 149 141 132 128 126 134 139 141 142 146 149 151 151 148 153 151 149 161 163 158 165 168 157 150 158 162 150 145 145 144 144 141 138 139 139 136 138 134 141 137 145 144 139 130 121 113 109 107 103 102 100 102 114 116 110 102 96 94 103 111 115 117 114
275 272 272 271 269 263 256 247 237 223 215 206 199 193 189 186 182 179 173 170 166 162 162 156 152 151 149 150 144 140 132 125 129 140 150 152 146 132 141 140 148 159 160 155 154 151 145 138 143 148 144 140 141 141 137 138 139 136 134 133 133 142 132 121 113 108 110 111 106 104 100 94 93 98 106 110 115 111 99 93 85 102 101 117 100
275 271 267 265 262 260 255 244 229 215 209 200 193 188 187 183 180 177 174 166 165 165 165 160 162 159 154 148 142 137 128 137 150 152 146 126 108 116 121 133 132 129 123 132 132 132 135 135 129 122 132 134 136 137 136 137 133 134 134 131 127 120 120 122 122 120 114 113 107 105 104 101 97 97 106 107 103 102 104 103 98 105 118 114 111
277 276 270 263 259 252 247 239 223 212 205 194 195 187 185 185 185 180 171 168 168 169 170 169 165 162 151 149 150 151 149 151 150 150 141 136 129 121 119 118 110 115 128 126 126 126 125 123 127 128 129 130 130 129 128 131 130 130 130 130 132 131 135 135 138 131 125 123 115 114 109 110 109 106 96 96 100 106 114 112 111 107 102 91 97
275 273 271 267 256 253 240 232 222 212 204 198 193 187 189 186 180 175 171 170 165 164 166 161 147 132 134 142 149 144 135 138 136 130 131 129 125 117 111 100 114 117 115 120 119 117 120 124 122 124 120 119 120 122 123 122 124 127 128 127 125 132 134 132 129 123 122 114 115 112 110 109 110 111 112 106 105 104 103 101 92 88 77 71 75
274 273 269 265 256 244 238 226 222 210 203 197 193 192 189 183 178 172 167 164 161 156 144 126 123 118 128 121 119 106 101 107 104 90 67 75 91 102 102 103 99 113 122 126 128 126 121 119 120 120 123 124 126 126 125 127 134 134 134 134 136 137 134 134 128 123 118 115 110 110 112 111 113 111 116 112 104 112 103 105 101 95 87 82 79
275 272 270 263 254 242 234 225 208 205 201 200 197 190 182 178 171 165 157 154 147 137 130 126 128 122 108 102 101 99 93 83 80 89 90 82 78 91 98 101 106 109 114 112 114 122 124 121 119 118 121 125 130 137 137 133 132 120 127 134 136 134 129 126 118 115 112 110 109 107 105 103 106 103 105 104 113 106 112 105 90 83 82 81 75
273 271 264 263 259 250 236 210 203 201 201 185 168 161 160 161 152 149 147 141 135 132 135 129 123 110 101 107 104 104 99 95 97 97 93 86 71 60 54 93 103 100 97 92 95 83 96 100 102 99 84 73 76 89 74 94 122 129 132 128 124 119 121 120 123 124 122 116 116 115 113 110 103 103 103 109 114 113 108 104 104 103 98 85 96
274 269 264 261 266 259 248 231 212 191 162 152 148 148 148 147 144 134 128 128 122 122 122 121 120 119 118 116 104 98 105 105 103 104 95 96 91 85 93 104 101 93 94 90 90 92 91 95 98 98 92 82 81 90 96 92 96 109 122 126 129 123 126 125 125 122 112 113 116 116 113 108 108 111 111 114 114 117 108 112 115 111 97 91 86
280 281 276 279 294 1 32 38 64 126 153 148 139 133 128 126 125 129 128 123 122 123 120 117 114 113 115 115 103 100 102 103 100 98 102 95 92 95 100 101 98 96 95 96 94 92 94 96 100 99 99 97 92 86 85 88 88 91 93 95 102 111 111 106 106 101 105 113 118 116 116 112 119 121 124 117 114 106 113 108 98 111 117 98 94
292 286 303 316 30 78 61 64 60 72 89 107 121 122 117 112 110 108 110 116 120 121 118 118 118 118 107 100 105 102 101 99 104 101 94 95 95 104 108 102 97 93 90 86 84 87 87 89 92 97 97 98 95 91 87 84 85 84 85 89 93 96 99 108 105 111 116 121 121 118 119 120 115 107 106 102 100 102 108 112 115 107 104 112 93
305 304 317 340 52 85 82 83 76 65 72 73 79 87 99 103 108 110 114 113 109 110 107 101 96 101 106 95 95 96 96 100 100 97 95 92 100 106 100 93 91 93 89 86 82 82 84 87 90 94 95 96 97 95 92 90 87 88 87 88 95 101 110 105 100 99 108 116 121 122 123 116 109 108 104 108 116 120 115 121 110 108 114 113 119
317 325 335 30 72 67 87 89 91 84 79 78 83 81 87 96 101 103 103 106 107 112 112 101 101 98 97 100 102 98 99 94 93 90 91 99 98 95 95 94 94 92 92 89 88 86 86 84 85 86 91 94 97 100 99 95 93 90 96 103 112 115 110 104 106 111 112 109 105 108 104 102 103 105 106 107 116 116 120 118 114 119 115 110 101
327 343 354 2 62 80 79 81 86 92 89 83 81 83 80 88 93 98 102 100 94 90 96 92 98 98 102 99 96 96 94 94 94 98 101 103 93 83 83 82 84 79 81 84 81 78 85 86 86 87 88 90 91 94 97 99 97 99 100 119 127 120 116 110 107 110 106 106 113 118 122 120 121 116 106 114 122 117 121 125 131 116 116 103 93
336 345 3 11 17 44 77 89 87 84 90 96 95 93 94 92 90 91 102 97 90 100 93 89 93 92 88 94 94 94 96 98 100 102 103 98 92 95 94 96 94 92 87 84 85 76 80 86 86 87 90 93 93 97 100 104 104 108 115 125 127 124 118 105 104 102 100 98 102 107 114 123 127 127 120 125 124 124 134 128 117 116 111 111 107